Regional Weather Roundup
Issued by NWS Sterling, VA

Home | Current Version | Previous Version | Graphics & Text | Print | Product List | Glossary On
Versions: 1 2 3 4 5 6 7 8 9 10 11 12 13 14 15 16 17 18 19 20 21 22 23 24 25 26 27
000
ASUS41 KLWX 231411
RWRLWX

REGIONAL WEATHER ROUNDUP
NATIONAL WEATHER SERVICE BALTIMORE MD/WASHINGTON DC
1000 AM EDT SUN JUL 23 2017

Note: "FAIR" indicates few or no clouds below 12,000 feet
with no significant weather and/or obstructions to visibility.
 TC=TEMPERATURE CELSIUS

 * =Non NWS site. Station does not report precipitation (e.g. rain,
    snow, etc.), thunder, or fog.

DCZ001-MDZ009-015-VAZ040>042-051-053>054-231500-
WASHINGTON METRO

CITY           SKY/WX    TMP DP  RH WIND       PRES   REMARKS
WASHINGTON NAT CLOUDY    82  76  81 E3        29.80S
DULLES         CLOUDY    82  72  71 W7        29.81S
ANDREWS AFB    CLOUDY    82  73  75 W7        29.80S
FT BELVOIR     CLOUDY    84  73  69 W5        29.80S HX  90
QUANTICO       CLOUDY    83  77  82 CALM      29.81S HX  92
COLLEGE PARK*  CLOUDY    82  73  76 W7        29.79F
LEESBURG*      PTSUNNY   82  77  83 W5        29.83S HX  91
MANASSAS*      MOSUNNY   80  75  84 CALM      29.81F
GAITHERSBURG*  CLOUDY    79  73  82 NW6       29.83S

$$

MDZ006>007-011-014-231500-
BALTIMORE METRO

CITY           SKY/WX    TMP DP  RH WIND       PRES   REMARKS
BWI AIRPORT    CLOUDY    83  74  74 VRB3      29.78S
MD SCIENCE CTR   N/A     85  72  65 MISG      29.78S HX  91
MARTIN STATE   PTSUNNY   82  75  78 NW7       29.80S
ANNAPOLIS      CLOUDY    82  77  84 NW7       29.78S HX  90
FORT MEADE*    CLOUDY    79  73  83 W3        29.82S

$$

MDZ012-015-019>023-231500-
MARYLAND EASTERN SHORE

CITY           SKY/WX    TMP DP  RH WIND       PRES   REMARKS
OCEAN CITY     PTSUNNY   80  76  87 S3        29.79S
SALISBURY      MOSUNNY   82  77  83 W8        29.79S HX  91
BAY BRIDGE AP* CLOUDY    81  75  83 N5        29.79S
CAMBRIDGE*     SUNNY     82  75  78 VRB6      29.80R
EASTON*        MOSUNNY   82  75  78 NW8       29.83S

$$

MDZ017>025-231500-
SOUTHERN MARYLAND

CITY           SKY/WX    TMP DP  RH WIND       PRES   REMARKS
PATUXENT RIVER CLOUDY    83  76  79 W5        29.80R HX  91
ST INIGOES     MOSUNNY   82  76  81 VRB5      29.79S
LEONARDTOWN*   PTSUNNY   81  73  78 NW5       29.82S

$$

MDZ003>005-231500-
NORTH CENTRAL MARYLAND

CITY           SKY/WX    TMP DP  RH WIND       PRES   REMARKS
FREDERICK*     SUNNY     82  72  69 CALM      29.82F
HAGERSTOWN APT MOSUNNY   81  72  74 W5        29.81F
WESTMINSTER*   SUNNY     81  73  78 CALM      29.81F

$$

MDZ501>502-231500-
WESTERN MARYLAND

CITY           SKY/WX    TMP DP  RH WIND       PRES   REMARKS
OAKLAND*       CLOUDY    64  64 100 SW8       29.92R
CUMBERLAND*    PTSUNNY   77  77 100 CALM      29.87R

$$

VAZ025>031-231500-
SHENANDOAH VALLEY

CITY           SKY/WX    TMP DP  RH WIND       PRES   REMARKS
WINCHESTER*    MOSUNNY   77  72  83 W6        29.83S
FRONT ROYAL*   PTSUNNY   81  73  78 SW3       29.82F
LURAY*         CLOUDY    77  72  83 CALM      29.86R
NEW MARKET*    MOSUNNY   78  71  80 CALM      29.84S
STAUNTON*      CLOUDY    79  70  74 SW7       29.90S
WAYNESBORO*    CLOUDY    77  70  79 SW10      29.91R

$$

WVZ021-048>050-054>055-231500-
EASTERN WEST VIRGINIA PANHANDLE

CITY           SKY/WX    TMP DP  RH WIND       PRES   REMARKS
MARTINSBURG    MOSUNNY   80  73  79 SE6       29.81R
PETERSBURG*    CLOUDY    81  70  70 CALM      29.86S

$$

VAZ036>039-050-231500-
CENTRAL FOOTHILLS

CITY           SKY/WX    TMP DP  RH WIND       PRES   REMARKS
CHARLOTTESVILL CLOUDY    81  72  74 SW5       29.84R
CULPEPER*      CLOUDY    80  76  87 CALM      29.83S
ORANGE*        CLOUDY    79  73  83 CALM      29.83S
GORDONSVILLE*  CLOUDY    78  77  98 CALM      29.83S
WARRENTON*     CLOUDY    80  73  79 CALM      29.81F

$$

VAZ055>057-231500-
NORTH AND CENTRAL PIEDMONT

CITY           SKY/WX    TMP DP  RH WIND       PRES   REMARKS
FREDERICKSBRG*   N/A     82  78  89 MISG      29.81S HX  92
STAFFORD*      PTSUNNY   81  76  83 NW5       29.85S

$$

NCZ024-NYZ072-PAZ021-071-VAZ022-071-231500-
OTHER REGIONAL OBSERVATIONS

CITY           SKY/WX    TMP DP  RH WIND       PRES   REMARKS
NEW YORK CITY  CLOUDY    74  71  91 CALM      29.83R FOG
PHILADELPHIA   PTSUNNY   79  71  76 N5        29.78S
PITTSBURGH     CLOUDY    75  72  90 SW7       29.83F
ROANOKE        CLOUDY    83  63  50 W13G21    29.93R
RICHMOND       CLOUDY    84  75  74 W9        29.82S HX  92
RALEIGH        CLOUDY    88  76  67 SW14      29.89F HX  99

$$

ANZ530>537-231500-
MARINE OBSERVATIONS

STATION/POSITION TIME  TEMP    WIND        PRES
                       AIR SEA DIR/SP/G
                 (UTC) (F)     (DEG/KT/KT) (MB)
THOMAS PT LIGHT  1400   79 83  290/  7/  8   N/A
BALT KEY BRIDGE  1348   81     310/  5/  6 1008.3S
COVE POINT       1348   81     290/  4/  6 1009.7R
LEWISETTA        1348   82 85  270/  4/  5 1009.1R
SOLOMONS ISLAND  1348   81 84  300/  5/  7   N/A
PINEY POINT      1348          320/  4/  5   N/A

$$





USA.gov is the U.S. government's official web portal to all federal, state and local government web resources and services.